Satellite-Ground Cal/Val Region Overpasses Predictions

Prediction of Satellite NPP Overpassing Cal/Val Region: PacNW

Region Location: (Latitude: 10.00, Longitude: 139.50) to (Latitude: 22.70, Longitude: 165.60).

Table of predicted overpasses for the next 14.0 days since TLE Epoch: 6/20/2022
Interval Starting Time Starting Location Ending Time Ending Location
1 06/20/2022 14:29:54 ( 11.29, 165.60) 06/20/2022 14:30:15 ( 10.06, 165.31)
2 06/20/2022 16:08:10 ( 22.68, 142.94) 06/20/2022 16:11:45 ( 10.05, 139.94)
3 06/21/2022 03:17:16 ( 10.03, 150.46) 06/21/2022 03:20:51 ( 22.66, 147.45)
4 06/21/2022 15:49:10 ( 22.66, 147.69) 06/21/2022 15:52:45 ( 10.04, 144.69)
5 06/22/2022 02:58:16 ( 10.05, 155.21) 06/22/2022 03:01:51 ( 22.67, 152.20)
6 06/22/2022 15:30:10 ( 22.65, 152.44) 06/22/2022 15:33:45 ( 10.03, 149.44)
7 06/23/2022 02:39:14 ( 10.00, 159.97) 06/23/2022 02:42:50 ( 22.68, 156.95)
8 06/23/2022 15:11:08 ( 22.69, 157.21) 06/23/2022 15:14:44 ( 10.01, 154.19)
9 06/24/2022 02:20:14 ( 10.02, 164.72) 06/24/2022 02:23:50 ( 22.70, 161.70)
10 06/24/2022 14:52:08 ( 22.68, 161.95) 06/24/2022 14:55:43 ( 10.06, 158.95)
11 06/25/2022 03:42:43 ( 10.04, 144.10) 06/25/2022 03:46:18 ( 22.66, 141.09)
12 06/25/2022 14:34:24 ( 18.14, 165.60) 06/25/2022 14:36:42 ( 10.04, 163.70)
13 06/25/2022 16:14:37 ( 22.66, 141.33) 06/25/2022 16:16:45 ( 15.15, 139.51)
14 06/26/2022 03:23:43 ( 10.05, 148.85) 06/26/2022 03:27:18 ( 22.67, 145.84)
15 06/26/2022 15:55:37 ( 22.64, 146.08) 06/26/2022 15:59:12 ( 10.02, 143.08)
16 06/27/2022 03:04:41 ( 10.01, 153.61) 06/27/2022 03:08:17 ( 22.69, 150.59)
17 06/27/2022 15:36:35 ( 22.68, 150.84) 06/27/2022 15:40:11 ( 10.00, 147.82)
18 06/28/2022 02:45:41 ( 10.03, 158.36) 06/28/2022 02:49:16 ( 22.65, 155.35)
19 06/28/2022 15:17:35 ( 22.66, 155.59) 06/28/2022 15:21:10 ( 10.04, 152.59)
20 06/29/2022 02:26:41 ( 10.05, 163.11) 06/29/2022 02:30:15 ( 22.67, 160.10)
21 06/29/2022 14:58:34 ( 22.65, 160.34) 06/29/2022 15:02:09 ( 10.03, 157.34)
22 06/30/2022 02:10:24 ( 19.70, 165.59) 06/30/2022 02:11:15 ( 22.69, 164.85)
23 06/30/2022 03:49:09 ( 10.01, 142.49) 06/30/2022 03:52:43 ( 22.58, 139.51)
24 06/30/2022 14:39:33 ( 22.68, 165.10) 06/30/2022 14:43:09 ( 10.01, 162.09)
25 06/30/2022 16:21:03 ( 22.68, 139.73) 06/30/2022 16:21:18 ( 21.80, 139.51)
26 07/01/2022 03:30:09 ( 10.03, 147.24) 07/01/2022 03:33:44 ( 22.66, 144.24)
27 07/01/2022 16:02:02 ( 22.66, 144.48) 07/01/2022 16:05:37 ( 10.04, 141.47)
28 07/02/2022 03:11:08 ( 10.06, 151.99) 07/02/2022 03:14:43 ( 22.68, 148.99)
29 07/02/2022 15:43:01 ( 22.70, 149.24) 07/02/2022 15:46:37 ( 10.02, 146.22)
30 07/03/2022 02:52:07 ( 10.02, 156.75) 07/03/2022 02:55:42 ( 22.64, 153.75)
31 07/03/2022 15:24:00 ( 22.68, 153.99) 07/03/2022 15:27:35 ( 10.06, 150.98)
